Change the Weather History Date:

Wednesday, December 5, 2012

  Actual Average Record
Temperature  
Mean Temperature 58 °F -  
Max Temperature 69 °F 55 °F 73 °F (1978)
Min Temperature 46 °F 43 °F 27 °F (1988)
Degree Days  
Heating Degree Days 8    
Growing Degree Days 8 (Base 50)    
Moisture  
Dew Point 49 °F    
Average Humidity 78    
Maximum Humidity 94    
Minimum Humidity 60    
Precipitation  
Precipitation 0.00 in - - ()
Sea Level Pressure  
Sea Level Pressure 30.16 in    
Wind  
Wind Speed 7 mph (NW)    
Max Wind Speed 17 mph    
Max Gust Speed 23 mph    
Visibility 10 miles    
Events Rain    
Averages and records for this station are not official NWS values.
T = Trace of Precipitation, MM = Missing Value Source: NWS Daily Summary

Daily Weather History Graph

Daily Weather History Graph

Search for Another Location

Airport or City:

Trip Planner

Search our weather history database for the weather conditions in past years. The results will help you decide how hot, cold, wet, or windy it might be!

Date:

Astronomy

Dec. 05, 2012 Rise Set
Actual Time 6:58 AM EST 4:48 PM EST
Civil Twilight 6:30 AM EST 5:16 PM EST
Nautical Twilight 5:58 AM EST 5:48 PM EST
Astronomical Twilight 5:27 AM EST 6:19 PM EST
Moon 11:26 PM EST (12/5) 11:29 AM EST (12/5)
Length of Visible Light 10h 46m
Length of Day
9h 49m
Waning Gibbous, 60% of the Moon is Illuminated
Dec 5
Waning Gibbous
Dec 6
Last Quarter
Dec 13
New
Dec 20
First Quarter
Dec 28
Full

Hourly Weather History & Observations

Time (EST) Temp. Windchill Dew Point Humidity Pressure Visibility Wind Dir Wind Speed Gust Speed Precip Events Conditions
12:15 AM 55.4 °F - 53.6 °F 94% 30.19 in 10.0 mi SW 5.8 mph - N/A   Unknown
12:35 AM 55.4 °F - 53.6 °F 94% 30.19 in 10.0 mi SW 6.9 mph - N/A   Unknown
12:55 AM 55.4 °F - 53.6 °F 94% 30.18 in 10.0 mi SW 5.8 mph - N/A   Unknown
1:15 AM 55.4 °F - 53.6 °F 94% 30.18 in 10.0 mi SW 3.5 mph - N/A   Unknown
1:35 AM 57.2 °F - 53.6 °F 88% 30.18 in 10.0 mi SW 6.9 mph - N/A   Unknown
1:55 AM 57.2 °F - 53.6 °F 88% 30.17 in 10.0 mi SW 6.9 mph - N/A   Unknown
2:15 AM 55.4 °F - 53.6 °F 94% 30.17 in 10.0 mi SW 8.1 mph - N/A   Unknown
2:35 AM 57.2 °F - 53.6 °F 88% 30.16 in 10.0 mi SW 6.9 mph - N/A   Unknown
2:55 AM 55.4 °F - 53.6 °F 94% 30.16 in 10.0 mi SW 6.9 mph - N/A   Unknown
3:15 AM 57.2 °F - 53.6 °F 88% 30.15 in 10.0 mi SW 8.1 mph - N/A   Unknown
3:35 AM 57.2 °F - 53.6 °F 88% 30.15 in 10.0 mi SW 9.2 mph - N/A   Unknown
3:55 AM 57.2 °F - 53.6 °F 88% 30.14 in 10.0 mi SW 9.2 mph - N/A   Unknown
4:15 AM 57.2 °F - 53.6 °F 88% 30.14 in 10.0 mi SW 8.1 mph - N/A   Unknown
4:35 AM 57.2 °F - 53.6 °F 88% 30.14 in 10.0 mi WSW 8.1 mph - N/A   Unknown
4:55 AM 57.2 °F - 53.6 °F 88% 30.13 in 10.0 mi SW 8.1 mph - N/A   Unknown
5:15 AM 57.2 °F - 53.6 °F 88% 30.13 in 10.0 mi SW 6.9 mph - N/A   Unknown
5:35 AM 55.4 °F - 53.6 °F 94% 30.14 in 10.0 mi SW 5.8 mph - N/A   Unknown
5:55 AM 55.4 °F - 51.8 °F 88% 30.13 in 10.0 mi SW 3.5 mph - N/A   Unknown
6:15 AM 53.6 °F - 51.8 °F 94% 30.14 in 10.0 mi SSW 5.8 mph - N/A   Unknown
6:35 AM 53.6 °F - 51.8 °F 94% 30.14 in 10.0 mi SSW 5.8 mph - N/A   Unknown
6:55 AM 55.4 °F - 51.8 °F 88% 30.14 in 10.0 mi Calm Calm - N/A   Unknown
7:15 AM 55.4 °F - 51.8 °F 88% 30.15 in 10.0 mi SW 4.6 mph - N/A   Unknown
7:35 AM 55.4 °F - 53.6 °F 94% 30.15 in 10.0 mi SSW 5.8 mph - N/A   Unknown
7:55 AM 57.2 °F - 53.6 °F 88% 30.15 in 10.0 mi SW 8.1 mph - N/A   Unknown
9:35 AM 64.4 °F - 55.4 °F 73% 30.15 in 10.0 mi West 8.1 mph 18.4 mph N/A   Unknown
9:55 AM 64.4 °F - 55.4 °F 73% 30.14 in 10.0 mi West 10.4 mph - N/A   Unknown
10:15 AM 64.4 °F - 55.4 °F 73% 30.14 in 10.0 mi West 11.5 mph - N/A   Unknown
10:35 AM 68.0 °F - 55.4 °F 64% 30.14 in 10.0 mi West 11.5 mph 17.3 mph N/A   Unknown
10:55 AM 68.0 °F - 55.4 °F 64% 30.13 in 10.0 mi West 12.7 mph 19.6 mph N/A   Unknown
11:35 AM 69.8 °F - 55.4 °F 60% 30.11 in 10.0 mi West 10.4 mph - N/A   Unknown
11:55 AM 69.8 °F - 55.4 °F 60% 30.11 in 10.0 mi NW 9.2 mph - N/A   Unknown
12:15 PM 66.2 °F - 55.4 °F 68% 30.11 in 10.0 mi NW 10.4 mph 16.1 mph N/A   Unknown
12:35 PM 64.4 °F - 55.4 °F 73% 30.11 in 10.0 mi NW 8.1 mph 16.1 mph N/A   Unknown
12:55 PM 64.4 °F - 53.6 °F 68% 30.11 in 10.0 mi NNW 8.1 mph 16.1 mph N/A   Unknown
1:15 PM 64.4 °F - 53.6 °F 68% 30.10 in 10.0 mi NNW 6.9 mph - N/A   Unknown
1:35 PM 62.6 °F - 53.6 °F 72% 30.10 in 10.0 mi NNW 6.9 mph - N/A   Unknown
1:55 PM 60.8 °F - 51.8 °F 72% 30.11 in 10.0 mi NNE 13.8 mph 19.6 mph N/A   Unknown
2:15 PM 59.0 °F - 46.4 °F 63% 30.11 in 10.0 mi NNE 17.3 mph 23.0 mph N/A   Unknown
2:35 PM 55.4 °F - 44.6 °F 67% 30.12 in 10.0 mi North 16.1 mph 20.7 mph N/A   Unknown
2:55 PM 55.4 °F - 44.6 °F 67% 30.12 in 10.0 mi North 13.8 mph 20.7 mph N/A   Unknown
3:15 PM 55.4 °F - 44.6 °F 67% 30.12 in 10.0 mi NNE 12.7 mph - N/A   Unknown
3:35 PM 53.6 °F - 46.4 °F 77% 30.13 in 10.0 mi NNE 13.8 mph - N/A   Unknown
3:55 PM 53.6 °F - 46.4 °F 77% 30.13 in 10.0 mi NNE 15.0 mph 18.4 mph N/A   Unknown
4:15 PM 53.6 °F - 46.4 °F 77% 30.14 in 10.0 mi North 12.7 mph - N/A   Unknown
4:35 PM 53.6 °F - 46.4 °F 77% 30.14 in 10.0 mi North 11.5 mph - N/A   Unknown
4:55 PM 53.6 °F - 46.4 °F 77% 30.15 in 10.0 mi North 11.5 mph - N/A   Unknown
5:15 PM 53.6 °F - 46.4 °F 77% 30.16 in 10.0 mi North 8.1 mph - N/A   Unknown
5:35 PM 53.6 °F - 44.6 °F 72% 30.17 in 10.0 mi North 6.9 mph - N/A   Unknown
5:55 PM 53.6 °F - 44.6 °F 72% 30.17 in 10.0 mi NNE 6.9 mph - N/A   Unknown
6:15 PM 53.6 °F - 44.6 °F 72% 30.17 in 10.0 mi NNE 4.6 mph - N/A   Unknown
6:35 PM 53.6 °F - 42.8 °F 67% 30.17 in 10.0 mi NNE 4.6 mph - N/A   Unknown
6:55 PM 53.6 °F - 42.8 °F 67% 30.18 in 10.0 mi North 4.6 mph - N/A   Unknown
7:15 PM 53.6 °F - 42.8 °F 67% 30.18 in 10.0 mi North 6.9 mph - N/A Rain Light Rain
7:35 PM 53.6 °F - 42.8 °F 67% 30.18 in 10.0 mi NNE 5.8 mph - N/A   Unknown
7:55 PM 53.6 °F - 42.8 °F 67% 30.19 in 10.0 mi North 4.6 mph - N/A   Unknown
8:15 PM 53.6 °F - 42.8 °F 67% 30.20 in 10.0 mi North 3.5 mph - N/A   Unknown
8:35 PM 53.6 °F - 42.8 °F 67% 30.20 in 10.0 mi Calm Calm - N/A   Unknown
8:55 PM 53.6 °F - 42.8 °F 67% 30.20 in 10.0 mi North 3.5 mph - N/A   Unknown
9:15 PM 51.8 °F - 41.0 °F 67% 30.20 in 10.0 mi NNE 4.6 mph - N/A   Unknown
9:55 PM 50.0 °F - 41.0 °F 71% 30.20 in 10.0 mi NNE 3.5 mph - N/A   Unknown
10:15 PM 50.0 °F - 41.0 °F 71% 30.20 in 10.0 mi North 3.5 mph - N/A   Unknown
10:35 PM 48.2 °F - 41.0 °F 76% 30.21 in 10.0 mi NNE 3.5 mph - N/A   Unknown
10:55 PM 46.4 °F 45.2 °F 41.0 °F 81% 30.21 in 10.0 mi NNE 3.5 mph - N/A   Unknown
11:15 PM 48.2 °F - 42.8 °F 82% 30.21 in 10.0 mi Calm Calm - N/A   Unknown
11:35 PM 46.4 °F 43.5 °F 41.0 °F 81% 30.21 in 10.0 mi North 5.8 mph - N/A   Unknown
11:55 PM 50.0 °F - 42.8 °F 76% 30.21 in 10.0 mi NNE 10.4 mph - N/A   Unknown